Location: Dumpton Point
(51.3500°N, 1.4433°E)
Time: 06:58:05
(UTC+00:00)

Envisat - Pass Details

Date: 07 December 2021
Orbit: 764 x 766 km, 98.2° (Epoch: 17 January)

Event Time Altitude Azimuth Distance (km) Brightness Sun altitude
Rises 05:17:57 0° 13° (NNE) 3,247 6.3 -21.7°
Reaches altitude 10° 05:20:16 10° 12° (NNE) 2,316 5.5 -21.4°
Maximum altitude 05:25:22 78° 287° (WNW) 788 2.8 -20.6°
Drops below altitude 10° 05:30:25 10° 202° (SSW) 2,298 5.4 -19.8°
Sets 05:32:43 0° 201° (SSW) 3,219 6.1 -19.5°
